Location: Molveno
(46.1500°N, 10.9667°E)
Time: 01:07:27
(UTC+00:00)

ERS-1 Rocket - Pass Details

Date: 05 July 2020
Orbit: 752 x 758 km, 98.5° (Epoch: 11 August)

Event Time Altitude Azimuth Distance (km) Brightness Sun altitude
Exits shadow 20:56:51 17° 173° (S) 1,842 4.4 -13.8°
Maximum altitude 21:00:46 75° 257° (WSW) 789 3.1 -14.2°
Drops below altitude 10° 21:05:50 10° 343° (NNW) 2,298 6.7 -14.7°
Sets 21:08:09 0° 345° (NNW) 3,227 7.8 -14.9°
